RH
66 53 56 56 54 46 42 49 50 51 55 48 46 45 40 41 45 40 39 72 75 76 76 71 72 73 72 72 75 73 73 73 72 72 72 72 76 74 72 70 70 73 73
69 50 50 48 49 46 44 49 54 55 52 46 44 44 44 39 44 48 38 42 73 75 75 74 71 73 73 72 70 73 76 76 77 75 77 80 79 79 76 73 73 72 73
65 62 50 51 48 57 63 55 56 51 45 43 44 40 41 43 40 46 42 36 41 77 75 72 78 80 75 74 74 75 77 80 80 80 81 81 80 80 80 80 79 78 79
63 61 56 50 50 53 50 48 48 47 43 42 42 41 42 41 44 45 41 42 35 33 64 71 71 80 78 72 74 77 79 79 80 82 82 82 81 81 83 83 83 83 83
58 56 51 50 60 55 68 53 47 50 45 41 38 37 41 40 42 32 44 45 44 39 33 74 71 75 72 68 74 77 79 82 81 82 82 83 83 82 82 83 84 85 86
59 65 59 58 58 69 51 49 62 47 51 45 39 37 43 40 40 38 37 32 40 42 41 53 47 50 70 70 74 77 79 80 81 81 82 82 84 84 84 85 85 86 86
60 63 52 60 59 59 56 58 52 54 42 44 43 36 42 44 42 38 33 29 34 33 41 47 47 47 55 73 80 79 77 75 79 81 83 83 84 85 86 87 88 88 88
63 60 64 60 63 46 62 59 60 46 42 44 47 44 38 44 42 34 34 29 33 28 34 42 49 57 52 52 64 80 82 82 80 79 80 84 84 84 85 87 89 90 89
64 67 66 58 62 54 38 56 55 58 42 52 60 48 40 38 37 38 43 32 35 30 33 37 43 46 49 43 48 57 74 77 76 77 78 79 84 85 85 85 86 88 89
61 63 65 64 60 43 55 53 50 54 60 47 43 48 58 58 41 38 35 34 33 31 38 30 32 38 42 34 50 70 70 69 68 67 67 71 75 79 80 83 86 87 88
64 56 66 61 59 48 59 60 59 63 48 47 42 44 53 42 52 42 38 34 33 33 33 32 32 30 36 37 32 53 64 67 68 66 66 65 66 68 72 77 80 82 85
52 63 64 62 57 51 59 55 60 61 60 56 46 52 40 39 38 39 37 40 40 36 33 34 35 30 31 33 36 56 55 66 69 68 68 69 68 67 68 68 72 77 78
43 58 70 65 51 60 56 56 61 57 58 53 61 44 41 41 39 39 40 39 39 36 36 36 36 34 32 34 36 56 62 71 75 79 78 74 71 69 68 67 69 72 76
40 49 66 58 56 54 55 56 47 46 51 50 58 59 44 40 38 40 41 45 45 38 35 48 38 34 35 35 45 67 47 70 71 76 80 82 80 75 72 70 70 70 71
40 53 59 58 52 55 54 57 45 52 51 53 51 55 50 37 34 37 40 46 47 46 38 35 35 37 38 36 46 46 49 63 73 77 80 82 81 81 78 76 78 79 78
59 56 57 52 53 54 55 61 50 52 56 42 38 50 55 40 39 38 39 39 40 44 48 35 34 38 41 42 48 50 49 70 70 77 82 81 82 82 82 80 80 80 81
64 61 61 55 54 55 56 61 60 51 52 55 52 55 60 61 44 36 35 37 39 41 46 40 37 41 52 55 51 51 48 49 43 75 79 82 83 82 80 79 80 81 81
66 70 61 65 59 53 55 59 57 47 50 52 52 57 56 44 56 58 44 57 48 51 51 67 55 46 54 51 53 59 50 39 41 53 76 77 77 78 79 81 83 83 84
78 74 74 76 74 67 57 58 59 56 52 51 52 55 54 54 59 49 53 46 41 43 48 46 53 42 42 41 49 64 55 51 40 56 69 71 74 77 80 83 84 85 87
72 85 81 80 68 61 58 57 55 56 53 50 54 56 58 57 60 58 54 61 57 53 54 47 51 42 48 55 52 54 48 34 35 32 47 55 59 59 74 78 80 80 85
77 74 71 67 66 64 57 62 56 53 56 57 56 55 56 61 69 68 48 56 62 53 51 47 48 41 50 54 58 41 42 40 53 40 36 34 32 35 38 51 52 65 80
68 68 66 68 66 58 65 75 64 53 56 60 60 62 67 75 77 88 88 87 79 70 67 50 49 50 68 73 53 46 49 51 53 40 48 41 42 42 39 36 52 67 72
73 63 62 65 67 66 80 81 83 53 54 65 68 73 72 69 82 63 80 88 87 88 87 74 75 70 81 66 66 83 69 62 56 45 57 55 43 43 38 32 56 74 81
67 65 68 68 65 58 85 92 89 64 71 66 67 69 82 86 85 70 64 60 58 60 62 63 67 63 63 64 69 67 70 72 69 58 61 57 41 39 38 40 60 69 72
65 64 66 68 69 66 94 91 91 56 62 69 85 78 87 91 90 82 66 65 64 60 68 81 84 84 85 88 82 61 56 63 65 60 50 47 42 44 48 55 57 68 74
69 61 66 67 68 72 93 92 86 47 70 80 93 92 92 88 88 89 69 65 65 59 56 57 55 62 74 60 86 71 66 75 61 45 44 48 51 70 92 71 62 63 67
Wind_Speed
2 3 2 3 4 2 0 3 3 4 5 5 6 6 7 6 6 5 5 8 0 4 6 10 11 13 12 12 13 13 12 12 12 12 11 11 13 11 10 11 11 9 9
3 5 4 4 3 2 2 3 4 6 5 5 5 6 7 7 6 6 5 3 4 3 4 9 11 13 14 14 14 13 14 13 13 14 12 12 12 12 12 12 12 12 11
5 7 4 5 5 1 4 5 4 3 5 5 6 5 6 6 6 5 5 4 3 10 6 5 9 11 14 15 15 14 13 13 13 15 14 13 12 13 14 14 14 13 12
8 7 4 5 4 4 5 4 4 5 5 5 5 5 6 5 5 5 4 4 3 6 10 8 5 11 13 14 15 14 14 13 14 13 15 14 14 14 14 14 14 14 13
9 7 6 6 6 5 4 6 5 4 5 5 5 5 4 4 3 3 3 1 4 3 5 13 6 5 10 13 13 14 13 13 14 15 15 15 16 16 16 15 15 14 15
8 6 6 6 5 5 6 3 4 5 5 5 7 5 3 2 3 3 4 3 5 4 5 3 3 7 5 4 7 9 12 14 13 15 15 15 16 17 17 17 16 16 16
6 5 6 7 5 5 3 3 6 5 6 1 7 2 5 3 3 1 3 5 5 5 6 5 5 5 7 6 9 7 5 6 12 12 13 14 15 16 17 18 17 17 17
8 7 6 5 3 3 3 4 4 6 3 2 5 4 3 6 4 3 3 4 6 5 6 6 5 6 4 6 7 9 9 8 6 6 6 8 12 14 16 17 18 18 18
7 7 5 3 3 5 3 3 3 3 5 2 3 5 3 1 2 6 5 4 4 5 4 5 5 6 5 5 1 6 11 10 8 8 7 7 7 7 12 16 17 18 19
6 6 6 5 4 3 1 3 2 4 4 3 1 2 3 6 5 1 5 4 1 2 5 4 3 4 3 3 6 9 8 9 8 8 8 8 9 10 11 9 13 17 19
7 8 8 7 5 6 5 2 2 3 2 5 3 1 1 2 1 4 6 3 2 3 2 2 3 3 2 1 1 7 3 4 7 8 8 8 9 10 12 14 13 12 17
8 9 9 7 6 4 5 4 3 4 4 4 4 4 3 3 2 3 5 5 4 3 2 4 4 4 3 3 2 1 2 4 4 5 7 9 10 10 11 13 16 17 17
6 9 9 7 6 6 4 4 4 2 4 4 4 5 3 4 4 5 5 6 6 5 4 4 3 4 4 4 4 2 5 8 6 7 8 8 9 10 11 13 15 17 19
6 6 8 7 8 7 6 6 6 6 4 5 5 6 7 5 5 5 6 7 8 7 6 6 5 3 4 5 7 7 10 11 7 7 9 9 10 12 13 14 15 16 18
5 6 9 8 7 8 7 8 7 6 5 7 7 8 8 7 6 6 6 6 9 10 8 6 7 3 6 6 5 9 10 7 6 10 11 11 12 12 14 16 16 16 18
6 7 8 8 9 7 8 9 8 8 7 7 7 6 7 8 8 6 6 7 7 9 11 9 7 9 6 7 8 9 11 8 14 15 14 13 13 13 15 16 18 18 18
10 7 7 8 9 9 9 10 10 8 7 8 9 8 9 8 8 7 5 7 7 8 10 10 9 10 9 9 9 10 11 12 11 13 13 12 13 15 16 18 19 19 20
12 11 6 6 9 9 10 12 12 10 9 10 10 10 9 7 7 8 8 7 8 9 10 13 11 11 10 10 10 11 11 11 11 10 7 13 15 17 18 18 19 20 19
12 12 13 12 11 10 12 13 13 11 10 10 10 9 10 8 9 8 8 9 9 7 8 10 10 10 10 10 11 8 11 11 11 16 18 20 19 19 19 19 20 20 19
16 14 14 11 10 13 13 14 13 12 10 10 10 10 10 10 9 9 9 9 9 8 10 10 9 10 7 9 8 9 9 11 11 12 11 15 19 18 18 19 19 21 20
17 16 14 11 10 13 10 14 12 12 11 11 11 11 12 11 8 8 9 8 9 10 8 10 11 11 9 8 11 12 13 12 9 13 12 13 14 14 13 16 18 18 15
19 16 14 13 13 12 12 9 11 12 12 11 10 9 8 8 9 7 9 10 10 9 11 11 12 13 13 12 12 11 12 13 15 11 13 14 14 15 15 16 19 16 16
15 13 11 11 16 15 9 12 9 12 11 9 8 6 7 6 5 11 10 11 13 14 14 11 13 13 13 13 13 10 14 14 15 14 15 17 14 16 15 15 18 15 15
15 11 9 13 16 13 9 12 12 11 11 9 6 3 4 8 7 13 10 11 10 10 10 9 10 11 11 12 12 12 15 15 12 14 15 17 14 16 16 16 23 25 28
15 13 11 12 15 14 12 15 12 12 11 11 7 6 5 5 4 3 8 9 10 10 4 7 7 10 13 14 13 9 11 11 12 13 15 16 15 16 17 17 17 26 29
12 10 11 13 14 12 16 16 17 11 12 6 5 5 6 3 6 4 8 8 9 9 7 10 10 11 13 12 14 11 9 9 13 15 13 14 15 14 13 12 14 14 15
Wind_Direction
222 284 340 297 325 273 321 303 319 335 322 306 328 326 324 314 317 300 313 121 129 285 251 212 207 209 209 207 210 209 208 210 218 221 226 226 236 220 225 236 243 245 245
185 254 240 260 261 276 314 306 342 321 320 316 317 333 315 315 318 302 296 271 152 223 277 215 205 211 215 216 215 219 220 220 223 224 225 230 219 223 225 232 241 248 250
258 267 261 259 257 273 262 241 263 254 294 316 316 314 308 320 313 301 283 300 239 178 200 217 217 205 213 221 224 219 216 225 226 230 224 224 232 234 234 231 235 240 245
232 241 241 249 259 262 265 263 294 312 293 313 316 320 332 313 346 285 266 305 307 293 174 183 205 212 208 215 221 226 230 234 232 238 228 225 232 234 230 234 238 237 239
244 248 251 252 232 260 282 286 300 306 309 299 311 315 338 330 323 32 20 329 61 290 322 141 171 235 216 219 220 225 226 232 237 237 235 234 235 234 236 239 238 236 236
224 223 239 262 255 237 248 308 323 317 306 315 311 309 359 27 16 48 69 60 49 24 29 350 201 160 199 252 241 239 233 230 240 243 238 236 234 237 239 238 238 237 237
230 237 234 224 238 268 329 303 280 245 301 18 276 349 151 200 82 53 43 31 33 39 38 56 16 346 142 141 66 25 2 299 252 242 244 245 241 239 237 238 237 236 237
225 226 246 232 213 285 244 287 279 300 267 29 317 260 274 162 197 80 66 61 23 38 48 63 59 50 6 67 57 61 42 25 6 334 319 271 252 249 244 237 236 236 236
218 231 201 256 176 282 244 215 218 281 292 100 323 318 254 2 331 143 153 74 42 57 48 83 60 68 46 65 298 87 28 19 19 11 345 327 320 316 263 247 241 240 240
216 196 189 180 213 268 147 182 203 291 268 299 193 188 332 8 332 252 163 135 74 50 50 1 55 106 38 34 88 69 30 20 11 8 1 343 330 321 299 289 263 247 240
208 197 188 184 189 226 163 247 214 234 216 308 267 207 126 262 185 313 319 341 325 155 357 317 343 314 122 339 351 92 31 20 360 355 352 345 333 320 308 301 286 274 257
194 205 194 194 188 197 202 219 211 217 281 306 307 305 266 281 289 298 300 299 329 292 265 283 291 311 272 286 249 205 261 270 296 312 321 324 322 317 308 301 291 287 282
210 187 205 200 195 203 196 232 202 230 223 263 232 262 238 261 285 289 283 282 291 286 262 289 238 299 302 277 294 234 284 235 239 273 286 295 302 305 305 301 296 289 281
206 200 202 206 221 203 208 194 202 231 211 234 246 268 298 280 272 277 287 305 298 295 296 255 193 289 277 290 319 263 267 195 226 265 276 280 284 291 295 296 294 291 287
210 190 194 207 215 216 212 202 233 205 228 230 243 241 255 269 275 270 282 273 297 301 298 303 305 244 252 279 311 292 282 263 222 257 261 264 270 273 281 286 283 280 279
225 180 198 198 196 204 228 221 227 212 228 242 243 245 256 272 271 257 269 280 273 293 296 304 300 303 289 290 289 279 278 275 251 240 232 243 252 262 271 273 274 275 274
168 191 209 206 210 199 218 231 248 259 231 239 246 248 250 260 265 272 271 265 276 278 277 292 303 296 305 273 279 282 286 289 281 225 225 235 249 257 262 268 270 269 268
156 167 169 243 245 226 222 230 237 241 226 234 234 242 249 248 238 246 255 262 287 295 294 287 294 294 283 292 278 274 271 286 284 278 235 238 246 254 258 257 256 258 258
162 177 165 186 218 228 229 232 237 240 237 243 244 243 252 255 260 271 290 290 287 285 265 263 285 285 294 289 279 262 262 278 267 250 233 244 247 249 251 247 247 247 244
166 186 176 188 224 242 234 236 233 237 236 238 247 254 257 254 257 264 269 269 269 270 275 268 261 276 283 294 282 275 284 289 299 297 287 261 263 258 243 241 243 247 241
186 191 179 186 218 233 221 232 235 236 231 238 246 250 246 251 257 248 263 277 295 274 296 290 280 305 288 290 305 306 297 303 300 277 286 295 290 285 286 275 271 264 246
188 190 195 188 209 227 221 205 232 233 237 245 255 273 290 284 242 244 238 255 277 274 279 285 289 294 297 292 282 297 307 295 293 293 296 287 288 282 286 283 278 265 258
207 206 200 200 218 228 208 207 205 244 256 249 255 273 297 286 302 267 236 224 235 228 229 262 278 288 296 291 308 304 293 296 289 298 298 285 283 284 282 286 291 271 259
205 206 201 214 223 229 190 142 162 227 242 245 244 261 308 288 276 264 257 264 276 274 263 253 283 297 300 309 303 296 291 285 280 276 264 276 287 293 304 290 289 282 273
205 211 219 227 228 232 165 173 188 228 228 231 218 232 214 243 242 184 259 267 277 285 217 186 225 252 256 260 259 291 286 297 296 300 287 285 296 302 301 297 289 279 272
205 215 231 225 222 227 184 185 197 222 221 231 235 251 182 246 135 188 263 274 277 277 301 303 286 256 243 263 227 245 266 269 275 290 302 298 308 314 297 300 286 295 283